Location: *
(40.4000°N, 15.1200°E)
Time: 21:29:17
(UTC+00:00)

Cosmos 2366 rocket - Pass Details

Date: 09 April 2020
Orbit: 955 x 997 km, 82.9° (Epoch: 24 May)

Event Time Altitude Azimuth Distance (km) Brightness Sun altitude
Rises 19:38:05 0° 354° (N) 3,643 7.6 -22.8°
Reaches altitude 10° 19:40:36 10° 357° (N) 2,694 6.8 -23.2°
Maximum altitude 19:46:45 72° 82° (E) 1,007 3.8 -24.2°
Enters shadow 19:48:11 53° 146° (SE) 1,166 4.0 -24.4°
